Tracking 19286 objects as of 19-Nov-2018
HD Live streaming from Space Station
objects crossing your sky now

GLOBALSTAR M058

Track GLOBALSTAR M058 now!
10-day predictions
GLOBALSTAR M058 is classified as:


NORAD ID: 25907
Int'l Code: 1999-049A
Perigee: 1,718.2 km
Apogee: 1,719.7 km
Inclination: 52.0 °
Period: 120.7 minutes
Semi major axis: 8089 km
RCS: 2.4031 m2 (large)
Launch date: September 22, 1999
Source: Globalstar (GLOB)
Launch site: TYURATAM MISSILE AND SPACE COMPLEX (TTMTR)
aabbcc
Your satellite tracking list
Your tracking list is empty




NASA's NSSDC Master Catalog

Two Line Element Set (TLE):
1 25907U 99049A   18322.67587350 -.00000101 +00000-0 -22010-3 0  9993
2 25907 051.9967 043.9421 0000973 312.8785 047.1968 11.93121951254759
Source of the keplerian elements: AFSPC